Regional Weather Roundup
Issued by NWS

Home | Current Version | Previous Version | Text Only | Print | Product List | Glossary On
Versions: 1 2 3 4 5 6 7 8 9 10 11 12 13 14 15 16 17 18 19 20 21 22 23 24 25 26 27 28 29 30 31 32 33 34 35 36 37 38 39 40 41 42 43 44 45 46 47 48 49 50
479
ASUS44 KBMX 201010
RWRAL

ALABAMA REGIONAL WEATHER ROUNDUP
NATIONAL WEATHER SERVICE BIRMINGHAM AL
400 AM CST MON FEB 20 2017

NOTE: "FAIR" INDICATES FEW OR NO CLOUDS BELOW 12,000 FEET
WITH NO SIGNIFICANT WEATHER AND/OR OBSTRUCTIONS TO VISIBILITY.

THE REMARK "TC" DENOTES TEMPERATURE IN DEGREES CELSIUS.

ALZ001>011-014-016>018-020-201100-
NORTH ALABAMA

CITY           SKY/WX    TMP DP  RH WIND       PRES   REMARKS
MUSCLE SHOALS  CLOUDY    49  46  90 CALM      30.14R
HUNTSVILLE     CLOUDY    51  48  89 E5        30.13R
DECATUR        CLOUDY    47  47 100 CALM      30.14R
HALEYVILLE     FAIR      45  44  97 CALM      30.15R
GADSDEN        PTCLDY    43  42  97 CALM      30.14R
$$

ALZ012-013-022-023-030>036-040>044-201100-
WEST CENTRAL ALABAMA

CITY           SKY/WX    TMP DP  RH WIND       PRES   REMARKS
TUSCALOOSA     CLOUDY    48  47  96 CALM      30.13R
$$

ALZ015-024>027-033>036-040>044-201100-
CENTRAL ALABAMA

CITY           SKY/WX    TMP DP  RH WIND       PRES   REMARKS
BIRMINGHAM     PTCLDY    50  47  89 CALM      30.15R
MONTGOMERY     CLOUDY    50  46  86 NW3       30.12R
SHELBY CO ARPT CLOUDY    49  48  97 CALM      30.12R
MAXWELL AFB    CLOUDY    49  49  99 CALM      30.11R FOG
GREENVILLE     FAIR      50  45  83 CALM      30.11R
$$

ALZ019-021-028-029-037-038-045>048-201100-
EAST CENTRAL ALABAMA

CITY           SKY/WX    TMP DP  RH WIND       PRES   REMARKS
ANNISTON       PTCLDY    47  45  93 NE3       30.13R
ALEXANDER CITY PTCLDY    45  44  95 CALM      30.12R
AUBURN         PTCLDY    54  48  80 NE6       30.12R
$$

ALZ051>064-201100-
SOUTHWEST ALABAMA

CITY           SKY/WX    TMP DP  RH WIND       PRES   REMARKS
MOBILE         FOG       58  57  97 CALM      30.10S VSB<1/4
BROOKLEY FIELD CLOUDY    58  58 100 CALM      30.11R FOG
EVERGREEN      CLOUDY    48  46  93 CALM      30.12R FOG
$$

ALZ049-050-065>069-201100-
SOUTHEAST ALABAMA

CITY           SKY/WX    TMP DP  RH WIND       PRES   REMARKS
DOTHAN         CLEAR     54  51  90 NE3       30.13R
OZARK          CLOUDY    51  49  92 CALM      30.09R
TROY           CLOUDY    48  46  93 N3        30.10R
EUFAULA        FAIR      46  44  93 CALM      30.10R FOG
$$




USA.gov is the U.S. government's official web portal to all federal, state and local government web resources and services.